Location: Casalecchio di Reno
(44.4760°N, 11.2757°E)
Time: 09:01:43
(UTC+02:00)

AO-73 - Pass Details

Date: 22 June 2024
Orbit: 555 x 624 km, 97.7° (Epoch: 17 July)

Event Time Altitude Azimuth Distance (km) Brightness Sun altitude
Rises 03:28:18 0° 28° (NNE) 2,749 ? -15.8°
Reaches altitude 10° 03:30:59 10° 47° (NE) 1,847 ? -15.5°
Maximum altitude 03:33:49 19° 93° (E) 1,375 ? -15.2°
Drops below altitude 10° 03:36:39 10° 139° (SE) 1,840 ? -15.0°
Enters shadow 03:38:08 - 151° (SSE) 2,318 ? -14.8°
